STARLINK-3970 (52706 NORAD) Tracking and Keplerian Element Data

This shows tracking and keplerian element data for the satellite.

Feedback or suggestion? Click here.




ElementValue
Catalog52706
NameSTARLINK-3970
Epoch Orbit130
Epoch Day192.91667824
Epoch Year2022
RAAN28.1737
Inclination53.2161
Eccentricity0.0002047
Argument of Perigee34.9801
Mean Anonmoly38.8123
Mean Motion15.73201587
Decay Rate-8.565E-05
L11 52706U 22053BC 22192.91667824 -.00008565 00000+0 -56654-4 0 9996
L22 52706 53.2161 28.1737 0002047 34.9801 38.8123 15.73201587 1304

Live tracking and technical data element details for STARLINK-3970 (NORAD 52706). STARLINK-3970 can be tracked NOW for your location showing map with azimuth and elevation plus other details from your city location.

Track the satellite on the map from your city or location and see movement details for azimuth, elevation, latitude, longitude, range, height, and movement on the map or in text.







IsCatalogInMostPopularTable: catalog: 52706, numindb: 8
Update: records affected: 1



GetName: 52706 STARLINK-3970

Hit Count: updated at: Sat, 13 Aug 2022 23:32:13 GMT